This is the latest recevied weather packets stored in our database for station/object KC9DNQ-3. If no packets are shown the sender has not sent any weather packets the latest 10 day(s).
| Time | Temp. | Humidity | Pressure | Rain* | Wind** | Luminosity | Snow |
|---|---|---|---|---|---|---|---|
| 1777610412 | 6.11° C | 92% | 1013.3 hPa | 1.02 mm | - | 0 W/m² | - |
| 1777610110 | 6.11° C | 92% | 1013.3 hPa | 0.76 mm | - | 0 W/m² | - |
| 1777609811 | 6.11° C | 92% | 1013.3 hPa | 0.76 mm | - | 0 W/m² | - |
| 1777609510 | 6.11° C | 91% | 1013.3 hPa | 0.76 mm | - | 0 W/m² | - |
| 1777609210 | 6.11° C | 91% | 1013.3 hPa | 0.76 mm | - | 0 W/m² | - |
| 1777608910 | 6.11° C | 91% | 1013.4 hPa | 0.76 mm | - | 0 W/m² | - |
| 1777608611 | 6.11° C | 91% | 1013.4 hPa | 0.76 mm | - | 0 W/m² | - |
| 1777608310 | 6.11° C | 90% | 1013.4 hPa | 0.76 mm | - | 0 W/m² | - |
| 1777608010 | 6.67° C | 90% | 1013.5 hPa | 0.76 mm | - | 0 W/m² | - |
| 1777607710 | 6.67° C | 90% | 1013.5 hPa | 1.02 mm | - | 0 W/m² | - |
| 1777607410 | 6.67° C | 90% | 1013.5 hPa | 1.52 mm | - | 0 W/m² | - |
| 1777607110 | 6.67° C | 90% | 1013.5 hPa | 1.52 mm | - | 0 W/m² | - |
| 1777606810 | 6.67° C | 90% | 1013.4 hPa | 1.78 mm | - | 0 W/m² | - |
| 1777606511 | 7.22° C | 90% | 1013.4 hPa | 1.78 mm | - | 0 W/m² | - |
| 1777606211 | 7.22° C | 90% | 1013.4 hPa | 1.78 mm | - | 0 W/m² | - |
| 1777605910 | 7.22° C | 90% | 1013.4 hPa | 1.78 mm | - | 0 W/m² | - |
| 1777605610 | 7.22° C | 90% | 1013.4 hPa | 1.78 mm | - | 0 W/m² | - |
| 1777605311 | 7.78° C | 91% | 1013.4 hPa | 2.03 mm | - | 0 W/m² | - |
| 1777605011 | 7.78° C | 91% | 1013.5 hPa | 1.78 mm | - | 0 W/m² | - |
| 1777604710 | 7.78° C | 90% | 1013.6 hPa | 1.52 mm | - | 0 W/m² | - |
| 1777604410 | 7.78° C | 90% | 1013.4 hPa | 1.52 mm | - | 0 W/m² | - |
| 1777603810 | 8.33° C | 89% | 1013.8 hPa | 1.02 mm | - | 0 W/m² | - |
| 1777603510 | 8.33° C | 89% | 1013.8 hPa | 0.76 mm | - | 0 W/m² | - |
| 1777603211 | 8.33° C | 89% | 1013.7 hPa | 0.51 mm | - | 0 W/m² | - |
| 1777602911 | 8.33° C | 89% | 1013.5 hPa | 0.51 mm | - | 0 W/m² | - |
* Rain latest hour (hover to see other rain measurements)
** Current wind speed in m/s (hover to see current wind gust speed)